User: anonymous   Login
Location: Bonnesvalyn
(49.1218°N, 3.3177°E)
Time: 09:37:36
(UTC+00:00)
Language:

Cosmos 2322 Rocket - Orbit

View from above orbital plane
View from above orbital plane
View from above satellite
View from above satellite

Ground track
Ground track

The orbit data is extracted from the following two-line orbital elements,

1 23705U 95058B   23150.74420917  .00000287  00000-0  17208-3 0  9997
2 23705  71.0200 148.5525 0014136 230.6724 129.3147 14.15232151424381
Epoch (UTC): 30 May 2023 17:51:39
Eccentricity: 0.0014136
inclination: 71.0200°
perigee height: 831 km
apogee height: 852 km
right ascension of ascending node: 148.5525°
argument of perigee: 230.6724°
revolutions per day: 14.15232151
mean anomaly at epoch: 129.3147°
orbit number at epoch: 42438

The dashed part of the orbit path shows where the satellite is in the earth's shadow,  

DLR